Погода в Большой Речке

Россия / Забайкальский край     50°34′35″N   109°58′53″E
темп.,
°C
ветер,
м/с
пор.,
м/с
влажн.,
%
обл.,
%
осадки,
мм/ч
давл.,
гПа
погр.,
м
28 ноября, вс
вс2800:00−11з1394100 0.3 1035181
03:00−12з2394100 0.4 1037103
06:00−13зюз1394100 0.0 1038120
09:00−15зюз1297100 0.0 103943
12:00−12з247730 0.0 1038591
15:00−10з355913 0.0 1035892
18:00−16ююз11915 0.0 103810
21:00−18ююв11945 0.0 103815
29 ноября, пн
пн2900:00−19юв1195100 0.0 103812
03:00−16юз0188100 0.0 103531
06:00−15зюз1190100 0.0 103352
09:00−15зюз129795 0.2 103458
12:00−12з248595 0.3 1034358
15:00−10з3782100 0.3 1032674
18:00−12зюз279191 0.3 1033320
21:00−12зюз2596100 0.4 1034240
30 ноября, вт
вт3000:00−10з41387100 0.4 10331191
03:00−11з41389100 0.6 1033817
06:00−12з31287100 0.1 1032590
09:00−14зюз279087 0.1 1034230
12:00−10з398592 0.1 1032538
15:00−7з4117494 0.1 10281016
18:00−13юз229211 0.0 103013
21:00−16юз119430 0.0 103214
1 декабря, ср
ср100:00−16юз119563 0.0 103217
03:00−17юз119749 0.0 103215
06:00−18зюз119665 0.0 103018
09:00−18зюз119668 0.0 102925
12:00−11з2679100 0.0 1026238
15:00−7з397195 0.0 1021431
18:00−7зюз5186899 0.0 10201220
21:00−6з71779100 0.1 10201432
2 декабря, чт
чт200:00−7з61693100 1.6 10211611
03:00−7зсз51492100 3.3 10221695
06:00−8зсз41385100 1.1 10231392
09:00−9зсз41284100 1.3 10251051
12:00−7з51192100 0.3 1024972
15:00−5з61285100 0.8 10221037
18:00−7з4126841 0.0 1022405
21:00−9з387463 0.0 1023215